Regional Weather Roundup
Issued by NWS Burlington, VT

Home | Current Version | Previous Version | Text Only | Print | Product List | Glossary On
Versions: 1 2 3 4 5 6 7 8 9 10 11 12 13 14 15 16 17 18 19 20 21 22 23 24 25 26 27 28 29 30 31 32 33 34 35 36 37 38 39 40 41 42 43 44 45 46 47 48 49 50
169
ASUS41 KBTV 200330
RWRBTV
VERMONT REGIONAL WEATHER ROUNDUP
NATIONAL WEATHER SERVICE BURLINGTON VT
1000 PM EST SUN FEB 19 2017

NOTE: "FAIR" INDICATES FEW OR NO CLOUDS BELOW 12,000 FEET WITH NO
SIGNIFICANT WEATHER AND/OR OBSTRUCTIONS TO VISIBILITY.

* THESE REPORTS ARE NOT UNDER NWS QUALITY CONTROL AND/OR DO NOT
  REPORT WEATHER SUCH AS PRECIPITATION AND FOG.

VTZ001>019-200400-
_____VERMONT_____


CITY           SKY/WX    TMP DP  RH WIND       PRES   REMARKS
BURLINGTON     CLOUDY    40  29  64 N16       29.97R WCI  31
MONTPELIER     CLOUDY    37  31  78 NW8       29.95R WCI  31
MORRISVILLE    CLOUDY    37  28  70 N7        29.95R WCI  32
ST. JOHNSBURY*   N/A     37  33  85 MISG      29.90R
LYNDONVILLE*   CLOUDY    35  30  83 NW12G22   29.91S WCI  26
MIDDLEBURY*    CLOUDY    39  24  53 N14G21    29.94S WCI  31
RUTLAND*       CLOUDY    42  29  59 NW6       29.92S
SPRINGFIELD    CLOUDY    43  28  55 NW5       29.91R
HIGHGATE*      CLOUDY    36  30  80 NW3       29.98R
NEWPORT*       CLOUDY    33  28  80 N10       29.94R WCI  25
BENNINGTON     CLOUDY    44  30  57 NW5       29.92R
SUTTON*          N/A     34 N/A N/A MISG        N/A
ISLAND POND*     N/A     34 N/A N/A NW2         N/A
GALLUP MILLS*    N/A     34 N/A N/A MISG        N/A
UNION VILLAGE*   N/A     45 N/A N/A MISG        N/A
MT. MANSFIELD*   N/A     25 N/A N/A N18         N/A  WCI  11

_____LAKE CHAMPLAIN_____


CITY           SKY/WX    TMP DP  RH WIND       PRES   REMARKS
BURTON ISLAND*   N/A     37  32  81 N7          N/A
COLCHESTER RF*   N/A     41  32  70 N21         N/A  WCI  32
DIAMOND ISL*     N/A     39  34  81 N17         N/A  WCI  30

$$

NYZ007-026>031-035-052-083-087-200400-
_____NORTHERN NEW YORK_____


CITY           SKY/WX    TMP DP  RH WIND       PRES   REMARKS
PLATTSBURGH    CLOUDY    38  28  67 N12       29.99R WCI  30
SARANAC LAKE   CLOUDY    36  29  75 VRB6      29.94R WCI  31
MASSENA        PTCLDY    37  27  67 NW7       30.05R WCI  32
OGDENSBURG*    MOCLDY    38  29  71 NW10      30.06R WCI  31
POTSDAM*       CLOUDY    37  30  75 N8        30.05R WCI  31
STARK FALLS*     N/A     36 N/A N/A NW8         N/A  WCI  29
WATERTOWN      CLOUDY    40  32  73 N7        30.05R
FT DRUM        CLOUDY    40  29  65 N12       30.03R
ALBANY         MOCLDY    44  31  60 W9        29.96R
GLENS FALLS    CLOUDY    48  28  46 N10       29.96R

$$
NHZ002-005-011-200400-
_____NEW HAMPSHIRE_____


CITY           SKY/WX    TMP DP  RH WIND       PRES   REMARKS
LEBANON        CLOUDY    44  29  55 NW8       29.89R
KEENE          CLOUDY    43  30  60 N3        29.90R
MT WASHINGTON  SNOWSHWR  18  18 100 NW67G79     N/A  VSB 0   WCI  -9
PLYMOUTH       CLOUDY    44  30  58 W7G21     29.88R
WHITEFIELD     CLOUDY    38  29  70 W8        29.89R

$$

_____REGIONAL QUEBEC LOCATIONS_____


CITY           SKY/WX    TMP DP  RH WIND       PRES   REMARKS
MONTREAL       MOCLDY    36  25  64 N10       30.01R WCI  28
QUEBEC CITY    CLOUDY    32  21  64 N7        29.93R WCI  26
SHERBROOKE     CLOUDY    32  25  74 NW10G20   29.92R WCI  24

_____REGIONAL ONTARIO LOCATIONS_____


CITY           SKY/WX    TMP DP  RH WIND       PRES   REMARKS
OTTAWA         PTCLDY    34  25  69 NW10      30.07R WCI  26

______KEY______
VSB  - VISIBILITY IN MILES
WCI  - WIND CHILL INDEX
HX   - HEAT INDEX
$$
NNNN




USA.gov is the U.S. government's official web portal to all federal, state and local government web resources and services.